Location: eljas
(40.1958°N, 6.8661°W)
Time: 02:35:17
(UTC+02:00)

Amateur Radio Satellites - All Passes

Search period start: 28 April 2015 02:05
Search period end: 29 April 2015 02:05
Location: eljas, 40.1958°N, 6.8661°W

Satellite Date Start Highest point End Downlink Frequencies (MHz)
Time Altitude Azimuth
NANOSAT C BR1 28 Apr 02:08:26 02:12:32 43° 287° (WNW) 02:16:35 145.865
Cosmos 2504 28 Apr 02:10:42 02:18:40 69° 79° (E) 02:26:04 435.465 / 435.565
POPSAT HIP 1 28 Apr 02:12:43 02:16:44 39° 288° (WNW) 02:20:44 437.405
ESTCUBE 1 28 Apr 02:15:38 02:18:11 14° 270° (W) 02:20:31 437.505/2401.250
RS-15 28 Apr 02:18:37 02:29:37 49° 249° (WSW) 02:40:51 29.354- 29.394
SPROUT 28 Apr 02:19:12 02:23:20 48° 261° (W) 02:27:30 437.525
BUGSAT 1 28 Apr 02:25:34 02:29:28 39° 288° (WNW) 02:33:23 437.445
TIGRISAT 28 Apr 02:34:59 02:37:39 15° 296° (WNW) 02:40:05 435.000
UNISAT 6 28 Apr 02:40:47 02:42:55 13° 297° (WNW) 02:44:48 437.425
DUCHIFAT 1 28 Apr 02:42:27 02:45:38 20° 292° (WNW) 02:48:42 145.980
POLYITAN 1 28 Apr 02:44:20 02:47:25 19° 293° (WNW) 02:50:22 437.675
ITUPSAT 1 28 Apr 02:48:05 02:52:33 41° 71° (ENE) 02:57:03 437.325
Cosmos 2491 28 Apr 02:49:28 02:54:48 16° 302° (WNW) 02:59:38 435.465 / 435.565
QB50P1 28 Apr 03:02:30 03:04:29 13° 295° (WNW) 03:06:16 145.935-145.965
AIST 1 28 Apr 03:08:47 03:12:25 26° 286° (WNW) 03:15:59
BEESAT 28 Apr 03:17:05 03:21:52 83° 75° (ENE) 03:26:40 436.000
TISAT 1 28 Apr 03:18:07 03:20:24 14° 270° (W) 03:22:30 437.305
SWISSCUBE 28 Apr 03:20:00 03:24:47 85° 254° (WSW) 03:29:36 437.505
GONETS M04 28 Apr 03:27:05 03:31:38 15° 57° (ENE) 03:36:45
STARS 28 Apr 03:28:06 03:29:43 12° 64° (ENE) 03:31:33 437.465
AIST 2 28 Apr 03:40:28 03:42:10 12° 110° (ESE) 03:44:06 435.215
Gurwin Techsat 1B 28 Apr 03:46:27 03:49:19 15° 89° (E) 03:52:26 435.225
DANDE 28 Apr 03:49:12 03:50:49 11° 57° (ENE) 03:53:06 436.750
BEESAT 3 28 Apr 03:56:53 04:00:57 76° 120° (ESE) 04:05:04 437.485
BEESAT 2 28 Apr 04:01:15 04:05:19 69° 120° (ESE) 04:09:28 435.950
Oscar 19 28 Apr 04:01:19 04:06:34 80° 104° (ESE) 04:11:46 437.125/150
Cosmos 2504 28 Apr 04:05:37 04:11:17 21° 279° (W) 04:16:21 435.465 / 435.565
KKS-1 28 Apr 04:12:23 04:16:43 57° 74° (ENE) 04:21:07 437.445
ITUPSAT 1 28 Apr 04:27:02 04:30:38 20° 267° (W) 04:34:08 437.325
CUSAT 1 28 Apr 04:34:07 04:40:42 30° 68° (ENE) 04:47:55 437.405
ITAMSAT 1 28 Apr 04:41:08 04:46:14 57° 100° (E) 04:51:21 435.822/435.867
HORYU 2 28 Apr 04:52:27 04:53:10 10° 88° (E) 04:54:12 437.375
MOZHAYETS 4 28 Apr 04:58:46 05:00:35 13° 64° (ENE) 05:02:39
STARS 28 Apr 05:01:19 05:05:41 66° 259° (WSW) 05:10:05 437.465
AIST 2 28 Apr 05:16:06 05:20:19 62° 304° (NW) 05:24:35 435.215
AO-7 28 Apr 05:16:10 05:21:58 21° 91° (E) 05:28:08 29.400- 29.500
GONETS M04 28 Apr 05:21:27 05:30:22 77° 81° (E) 05:39:11
Gurwin Techsat 1B 28 Apr 05:24:35 05:29:51 65° 287° (WNW) 05:35:06 435.225
DANDE 28 Apr 05:28:09 05:35:40 56° 76° (ENE) 05:44:05 436.750
BEESAT 3 28 Apr 05:37:22 05:39:31 13° 319° (NW) 05:41:32 437.485
BEESAT 2 28 Apr 05:41:33 05:43:57 14° 319° (NW) 05:46:13 435.950
Oscar 19 28 Apr 05:42:45 05:45:18 13° 298° (WNW) 05:47:36 437.125/150
KKS-1 28 Apr 05:51:43 05:53:48 13° 271° (W) 05:55:40 437.445
JAS-2 28 Apr 06:14:10 06:20:14 53° 98° (E) 06:25:38 435.910
CUSAT 1 28 Apr 06:16:09 06:23:53 63° 265° (W) 06:32:04 437.405
ITAMSAT 1 28 Apr 06:21:49 06:25:21 18° 296° (WNW) 06:28:42 435.822/435.867
Cosmos 2499 28 Apr 06:25:18 06:32:04 33° 70° (ENE) 06:38:33 435.465 / 435.565
HORYU 2 28 Apr 06:25:54 06:30:24 69° 285° (WNW) 06:34:51 437.375
MOZHAYETS 4 28 Apr 06:32:40 06:37:19 70° 259° (W) 06:41:58
M-CUBED/EXP-1 PRIME 28 Apr 06:34:29 06:37:45 19° 61° (ENE) 06:41:08 437.505
CUBESAT XI-V 28 Apr 06:42:15 06:43:49 12° 64° (ENE) 06:45:38 437.345
AO-7 28 Apr 07:07:22 07:15:43 79° 290° (WNW) 07:24:02 29.400- 29.500
DANDE 28 Apr 07:11:52 07:18:46 34° 270° (W) 07:26:05 436.750
AUBIESAT-1 28 Apr 07:13:14 07:17:38 38° 66° (ENE) 07:22:03 437.475
GONETS M04 28 Apr 07:19:59 07:26:22 22° 279° (W) 07:32:17
STRAND 1 28 Apr 07:44:50 07:49:05 28° 68° (ENE) 07:53:26 437.568
PRISM 28 Apr 07:45:50 07:49:30 31° 71° (ENE) 07:53:13 437.425
CUTE-I 28 Apr 07:49:33 07:53:25 21° 92° (E) 07:57:26 437.470
Cubesat XI-IV 28 Apr 07:59:35 08:03:57 26° 94° (E) 08:08:25 437.490
JAS-2 28 Apr 08:00:07 08:04:52 23° 298° (WNW) 08:09:06 435.910
CUSAT 1 28 Apr 08:02:55 08:05:40 12° 279° (W) 08:07:46 437.405
M-CUBED/EXP-1 PRIME 28 Apr 08:07:29 08:12:13 55° 256° (WSW) 08:16:57 437.505
CUBESAT XI-V 28 Apr 08:16:07 08:20:45 73° 259° (WSW) 08:25:23 437.345
Cosmos 2499 28 Apr 08:18:15 08:25:26 44° 271° (W) 08:32:07 435.465 / 435.565
AUBIESAT-1 28 Apr 08:48:32 08:52:29 24° 262° (W) 08:56:19 437.475
O/OREOS (USA 219) 28 Apr 08:59:24 09:03:31 35° 61° (ENE) 09:07:40 437.305
AO-7 28 Apr 09:02:03 09:07:22 18° 308° (NW) 09:12:21 29.400- 29.500
PCSat 28 Apr 09:10:26 09:15:33 46° 113° (ESE) 09:20:45 145.827
PRISM 28 Apr 09:21:54 09:25:04 20° 267° (W) 09:28:06 437.425
STRAND 1 28 Apr 09:23:34 09:28:12 34° 264° (W) 09:32:48 437.568
CUTE-I 28 Apr 09:28:41 09:33:48 48° 289° (WNW) 09:38:53 437.470
Cubesat XI-IV 28 Apr 09:39:16 09:44:11 38° 291° (WNW) 09:49:03 437.490
GOMX 1 28 Apr 09:49:39 09:52:52 17° 90° (E) 09:56:22 467.674
HO-68 28 Apr 10:00:54 10:05:52 21° 90° (E) 10:11:07 435.675
DOVE 4 28 Apr 10:13:32 10:17:06 19° 91° (E) 10:20:55 437.250
BRITE-PL 28 Apr 10:13:56 10:18:53 43° 98° (E) 10:24:09 437.365/2234.400
COMPASS 1 28 Apr 10:31:48 10:34:23 16° 91° (E) 10:37:07 437.405
CINEMA 3 28 Apr 10:39:12 10:42:18 17° 89° (E) 10:45:38 145.822/145.860
O/OREOS (USA 219) 28 Apr 10:39:22 10:42:45 21° 258° (WSW) 10:45:59 437.305
PCSat 28 Apr 10:54:38 10:59:13 27° 311° (NW) 11:03:46 145.827
Cosmos 2491 28 Apr 10:58:38 11:07:08 50° 75° (ENE) 11:15:41 435.465 / 435.565
SEEDS 28 Apr 11:00:21 11:04:23 43° 98° (E) 11:08:24 437.485
Oscar 11 28 Apr 11:04:21 11:06:50 15° 90° (E) 11:09:30 145.826/435.025
ANTELSAT 28 Apr 11:07:32 11:10:24 17° 65° (ENE) 11:13:29 437.575/2403.000
AAUSAT CUBESAT 2 28 Apr 11:11:10 11:15:05 39° 97° (E) 11:19:00 437.432
ZACube-1 28 Apr 11:12:31 11:13:29 11° 87° (E) 11:14:44 437.345
CANX-2 28 Apr 11:13:05 11:17:23 84° 102° (ESE) 11:21:38 2200.000
CUTE 1.7 + AOD 2 28 Apr 11:21:49 11:26:07 86° 283° (WNW) 11:30:21 437.475
GOMX 1 28 Apr 11:26:13 11:31:21 62° 286° (WNW) 11:36:43 467.674
NANOSAT C BR1 28 Apr 11:27:32 11:28:54 12° 64° (ENE) 11:30:29 145.865
POPSAT HIP 1 28 Apr 11:31:26 11:33:18 13° 65° (ENE) 11:35:22 437.405
SO-50 28 Apr 11:40:05 11:42:55 17° 110° (ESE) 11:45:59 436.795
BUGSAT 1 28 Apr 11:42:47 11:43:47 11° 64° (ENE) 11:44:59 437.445
DX 1 28 Apr 11:43:02 11:44:50 13° 90° (E) 11:46:54 434.975-435.025
HO-68 28 Apr 11:47:09 11:54:19 71° 289° (WNW) 12:01:26 435.675
DOVE 4 28 Apr 11:50:07 11:55:09 53° 287° (WNW) 12:00:18 437.250
BRITE-PL 28 Apr 11:53:00 11:57:13 25° 291° (WNW) 12:01:31 437.365/2234.400
TIGRISAT 28 Apr 11:54:43 11:59:04 49° 73° (ENE) 12:03:34 435.000
CUBEBUG 2 28 Apr 11:56:23 12:01:04 53° 99° (E) 12:05:43 437.445
DUCHIFAT 1 28 Apr 11:58:24 12:01:47 25° 69° (ENE) 12:05:16 145.980
UNISAT 6 28 Apr 12:00:08 12:04:35 58° 74° (ENE) 12:09:12 437.425
POLYITAN 1 28 Apr 12:00:33 12:04:06 27° 70° (ENE) 12:07:45 437.675
YUBILEINY 28 Apr 12:02:03 12:10:31 55° 91° (E) 12:19:03 435.215
AIST 2 28 Apr 12:02:35 12:03:11 10° 37° (NE) 12:03:58 435.215
DELFI C3 28 Apr 12:04:32 12:08:31 54° 100° (E) 12:12:26 145.870
ISS 28 Apr 12:05:13 12:07:57 25° 134° (SE) 12:10:43 145.825
COMPASS 1 28 Apr 12:06:21 12:10:18 39° 288° (WNW) 12:14:10 437.405
CINEMA 3 28 Apr 12:14:58 12:19:52 55° 286° (WNW) 12:24:46 145.822/145.860
BEESAT 3 28 Apr 12:16:23 12:20:14 37° 52° (NE) 12:24:02 437.485
UWE-3 28 Apr 12:16:52 12:21:35 71° 101° (E) 12:26:14 435.000/436.395/437.385
QB50P1 28 Apr 12:17:03 12:20:59 40° 72° (ENE) 12:24:59 145.935-145.965
FUNcube-1 28 Apr 12:19:19 12:23:53 58° 100° (E) 12:28:22 145.935
HUMSAT D 28 Apr 12:19:44 12:23:25 27° 95° (E) 12:27:08 437.325/437.525
UKube-1 28 Apr 12:20:41 12:24:32 31° 97° (E) 12:28:25 .
BEESAT 2 28 Apr 12:21:17 12:25:06 35° 51° (NE) 12:28:53 435.950
ESTCUBE 1 28 Apr 12:32:16 12:33:28 11° 88° (E) 12:34:59 437.505/2401.250
SEEDS 28 Apr 12:37:11 12:39:53 16° 293° (WNW) 12:42:25 437.485
Oscar 11 28 Apr 12:39:10 12:43:19 45° 287° (WNW) 12:47:26 145.826/435.025
50 SAT 28 Apr 12:39:37 12:43:02 26° 95° (E) 12:46:28 437.505
ANTELSAT 28 Apr 12:42:24 12:46:49 49° 261° (W) 12:51:21 437.575/2403.000
QB50P2 28 Apr 12:43:49 12:48:02 86° 80° (E) 12:52:19 145.880/145.840
ZACube-1 28 Apr 12:45:49 12:50:27 71° 284° (WNW) 12:54:59 437.345
AAUSAT CUBESAT 2 28 Apr 12:47:39 12:50:27 17° 293° (WNW) 12:53:05 437.432
Cosmos 2491 28 Apr 12:55:58 13:03:46 35° 274° (W) 13:11:23 435.465 / 435.565
CUBEBUG 1 28 Apr 12:57:15 13:00:18 19° 92° (E) 13:03:30 437.445
VELOX 1 28 Apr 12:59:01 13:03:13 41° 98° (E) 13:07:27 145.980
NANOSAT C BR1 28 Apr 13:00:06 13:04:16 63° 259° (W) 13:08:28 145.865
Cosmos 2504 28 Apr 13:02:41 13:02:55 10° 76° (ENE) 13:03:59 435.465 / 435.565
POPSAT HIP 1 28 Apr 13:04:37 13:08:45 55° 260° (W) 13:12:55 437.405
BUGSAT 1 28 Apr 13:14:50 13:18:48 60° 259° (W) 13:22:48 437.445
AIST 1 28 Apr 13:15:32 13:19:48 69° 81° (E) 13:24:04
DX 1 28 Apr 13:17:14 13:21:31 55° 287° (WNW) 13:25:47 434.975-435.025
AISAT 28 Apr 13:17:50 13:22:19 70° 102° (ESE) 13:26:47 437.250
SO-50 28 Apr 13:18:26 13:23:01 56° 306° (NW) 13:27:48 436.795
TIGRISAT 28 Apr 13:33:20 13:36:11 16° 270° (W) 13:38:53 435.000
DUCHIFAT 1 28 Apr 13:33:57 13:37:32 26° 265° (W) 13:41:05 145.980
CUBEBUG 2 28 Apr 13:34:12 13:37:22 17° 294° (WNW) 13:40:21 437.445
POLYITAN 1 28 Apr 13:36:31 13:40:01 24° 266° (W) 13:43:27 437.675
HO-68 28 Apr 13:37:24 13:40:57 14° 307° (NW) 13:44:07 435.675
AIST 2 28 Apr 13:38:23 13:42:38 71° 56° (ENE) 13:46:48 435.215
UNISAT 6 28 Apr 13:39:32 13:41:52 13° 272° (W) 13:43:58 437.425
ISS 28 Apr 13:41:11 13:44:13 35° 331° (NNW) 13:47:16 145.825
Oscar 19 28 Apr 13:41:30 13:43:57 14° 62° (ENE) 13:46:40 437.125/150
DELFI C3 28 Apr 13:41:33 13:43:14 12° 295° (WNW) 13:44:43 145.870
QB50P1 28 Apr 13:54:24 13:57:06 16° 269° (W) 13:59:39 145.935-145.965
BEESAT 3 28 Apr 13:55:02 13:58:00 19° 248° (WSW) 14:00:50 437.485
UWE-3 28 Apr 13:55:23 13:57:34 13° 296° (WNW) 13:59:30 435.000/436.395/437.385
HUMSAT D 28 Apr 13:55:30 13:59:07 25° 291° (WNW) 14:02:37 437.325/437.525
UKube-1 28 Apr 13:57:06 14:00:33 23° 292° (WNW) 14:03:53 .
FUNcube-1 28 Apr 13:57:09 13:59:45 15° 295° (WNW) 14:02:09 145.935
BEESAT 2 28 Apr 13:59:53 14:03:01 21° 248° (WSW) 14:06:00 435.950
YUBILEINY 28 Apr 14:00:00 14:07:49 33° 291° (WNW) 14:15:25 435.215
ESTCUBE 1 28 Apr 14:06:25 14:10:53 65° 285° (WNW) 14:15:19 437.505/2401.250
SPROUT 28 Apr 14:06:35 14:10:22 29° 96° (E) 14:14:11 437.525
50 SAT 28 Apr 14:14:30 14:17:44 23° 291° (WNW) 14:20:52 437.505
ITAMSAT 1 28 Apr 14:24:05 14:24:56 10° 60° (ENE) 14:26:05 435.822/435.867
RS-15 28 Apr 14:30:58 14:39:44 31° 106° (ESE) 14:48:58 29.354- 29.394
CUBEBUG 1 28 Apr 14:32:47 14:36:50 37° 289° (WNW) 14:40:51 437.445
VELOX 1 28 Apr 14:36:22 14:39:31 19° 293° (WNW) 14:42:33 145.980
Cosmos 2504 28 Apr 14:46:14 14:54:53 62° 92° (E) 15:03:28 435.465 / 435.565
ITUPSAT 1 28 Apr 14:52:06 14:52:52 10° 87° (E) 14:53:59 437.325
AISAT 28 Apr 14:56:38 14:58:24 12° 297° (WNW) 14:59:55 437.250
TISAT 1 28 Apr 15:00:46 15:05:03 86° 284° (WNW) 15:09:19 437.305
SO-50 28 Apr 15:03:40 15:04:45 11° 328° (NNW) 15:05:38 436.795
Gurwin Techsat 1B 28 Apr 15:06:38 15:10:44 24° 66° (ENE) 15:14:59 435.225
Oscar 19 28 Apr 15:17:34 15:22:44 76° 258° (WSW) 15:27:57 437.125/150
BEESAT 28 Apr 15:18:42 15:22:19 22° 93° (E) 15:26:03 436.000
ISS 28 Apr 15:19:44 15:21:19 13° 350° (N) 15:22:52 145.825
AIST 2 28 Apr 15:20:02 15:20:41 10° 252° (WSW) 15:21:04 435.215
SWISSCUBE 28 Apr 15:21:30 15:25:24 25° 94° (E) 15:29:22 437.505
SPROUT 28 Apr 15:42:50 15:46:21 24° 291° (WNW) 15:49:48 437.525
HORYU 2 28 Apr 15:51:03 15:51:46 10° 62° (ENE) 15:52:44 437.375
ITAMSAT 1 28 Apr 15:58:32 16:03:43 82° 75° (ENE) 16:08:55 435.822/435.867
KKS-1 28 Apr 16:06:20 16:07:45 12° 89° (E) 16:09:26 437.445
AO-7 28 Apr 16:14:39 16:21:27 31° 59° (ENE) 16:28:27 29.400- 29.500
JAS-2 28 Apr 16:24:19 16:30:38 29° 64° (ENE) 16:36:54 435.910
ITUPSAT 1 28 Apr 16:26:39 16:31:25 76° 285° (WNW) 16:36:10 437.325
GONETS M04 28 Apr 16:29:23 16:34:11 17° 79° (E) 16:39:33
VERMONT LUNAR 28 Apr 16:37:17 16:39:51 21° 151° (SSE) 16:42:30 437.305
RS-15 28 Apr 16:40:24 16:51:17 71° 306° (NW) 17:02:26 29.354- 29.394
Cosmos 2504 28 Apr 16:41:13 16:48:53 30° 292° (WNW) 16:56:13 435.465 / 435.565
Gurwin Techsat 1B 28 Apr 16:45:27 16:50:29 43° 262° (W) 16:55:33 435.225
STARS 28 Apr 16:52:12 16:55:45 23° 94° (E) 16:59:22 437.465
BEESAT 28 Apr 16:55:55 17:00:19 37° 290° (WNW) 17:04:40 436.000
ISS 28 Apr 16:57:10 16:58:45 13° 10° (N) 17:00:20 145.825
SWISSCUBE 28 Apr 16:59:04 17:03:19 32° 291° (WNW) 17:07:29 437.505
HORYU 2 28 Apr 17:23:20 17:27:49 81° 257° (WSW) 17:32:22 437.375
PHONESAT 2.4 28 Apr 17:34:46 17:37:30 21° 151° (SSE) 17:40:17 2401.200-2431.200
KKS-1 28 Apr 17:40:26 17:44:54 64° 286° (WNW) 17:49:20 437.445
ITAMSAT 1 28 Apr 17:42:22 17:43:58 11° 273° (W) 17:45:13 435.822/435.867
CUSAT 1 28 Apr 17:44:17 17:46:36 15° 82° (E) 17:49:28 437.405
PCSat 28 Apr 17:58:51 18:03:46 34° 52° (NE) 18:08:42 145.827
AO-7 28 Apr 18:05:37 18:13:48 63° 257° (WSW) 18:22:01 29.400- 29.500
JAS-2 28 Apr 18:07:27 18:15:15 63° 260° (W) 18:22:45 435.910
VERMONT LUNAR 28 Apr 18:13:39 18:17:01 70° 167° (SSE) 18:20:23 437.305
GONETS M04 28 Apr 18:21:08 18:29:55 89° 97° (E) 18:38:49
STARS 28 Apr 18:28:17 18:32:15 31° 290° (WNW) 18:36:08 437.465
MOZHAYETS 4 28 Apr 18:28:51 18:32:47 28° 95° (E) 18:36:45
ISS 28 Apr 18:32:47 18:35:50 36° 30° (NNE) 18:38:53 145.825
DANDE 28 Apr 18:41:42 18:45:04 46° 93° (E) 18:49:33 436.750
RS-15 28 Apr 18:57:24 19:06:15 26° 335° (NNW) 19:15:07 29.354- 29.394
Cosmos 2499 28 Apr 19:00:19 19:07:32 31° 86° (E) 19:14:50 435.465 / 435.565
CUTE-I 28 Apr 19:10:43 19:15:22 33° 68° (ENE) 19:20:07 437.470
PHONESAT 2.4 28 Apr 19:11:51 19:15:25 69° 167° (SSE) 19:19:00 2401.200-2431.200
Cubesat XI-IV 28 Apr 19:20:57 19:25:53 41° 70° (ENE) 19:30:53 437.490
CUSAT 1 28 Apr 19:25:01 19:28:41 38° 289° (WNW) 19:33:27 437.405
PCSat 28 Apr 19:42:17 19:47:10 34° 250° (WSW) 19:51:58 145.827
VERMONT LUNAR 28 Apr 19:51:05 19:54:29 84° 1° (N) 19:57:53 437.305
M-CUBED/EXP-1 PRIME 28 Apr 19:53:13 19:53:50 10° 92° (E) 19:54:40 437.505
JAS-2 28 Apr 20:00:26 20:01:45 10° 279° (W) 20:02:17 435.910
MOZHAYETS 4 28 Apr 20:06:04 20:09:58 27° 291° (WNW) 20:13:46
ISS 28 Apr 20:09:20 20:12:06 25° 226° (SW) 20:14:48 145.825
SO-50 28 Apr 20:10:51 20:14:11 18° 40° (NE) 20:17:39 436.795
CUBESAT XI-V 28 Apr 20:13:45 20:17:43 28° 95° (E) 20:21:45 437.345
GONETS M04 28 Apr 20:22:09 20:28:14 19° 299° (WNW) 20:33:54
DANDE 28 Apr 20:27:25 20:29:11 12° 302° (WNW) 20:30:55 436.750
AUBIESAT-1 28 Apr 20:30:26 20:33:47 26° 99° (E) 20:36:58 437.475
HO-68 28 Apr 20:30:47 20:34:44 16° 55° (NE) 20:39:01 435.675
PHONESAT 2.4 28 Apr 20:50:04 20:53:40 84° 2° (N) 20:57:16 2401.200-2431.200
CUTE-I 28 Apr 20:50:46 20:55:28 31° 265° (W) 21:00:06 437.470
Cosmos 2499 28 Apr 20:51:35 21:00:19 59° 283° (WNW) 21:08:45 435.465 / 435.565
GOMX 1 28 Apr 20:59:01 21:00:57 13° 64° (ENE) 21:03:10 467.674
Cubesat XI-IV 28 Apr 21:01:50 21:06:11 24° 267° (W) 21:10:24 437.490
PRISM 28 Apr 21:03:37 21:07:39 55° 100° (E) 21:11:40 437.425
RS-15 28 Apr 21:16:19 21:24:02 20° 10° (N) 21:32:08 29.354- 29.394
DOVE 4 28 Apr 21:20:02 21:22:26 15° 64° (ENE) 21:25:05 437.250
COMPASS 1 28 Apr 21:24:06 21:25:30 12° 65° (ENE) 21:27:06 437.405
M-CUBED/EXP-1 PRIME 28 Apr 21:25:14 21:29:17 55° 291° (WNW) 21:32:57 437.505
BRITE-PL 28 Apr 21:25:18 21:29:09 38° 72° (ENE) 21:33:12 437.365/2234.400
VERMONT LUNAR 28 Apr 21:28:36 21:31:53 47° 200° (SSW) 21:35:08 437.305
STRAND 1 28 Apr 21:33:57 21:39:05 84° 103° (ESE) 21:44:12 437.568
CINEMA 3 28 Apr 21:41:47 21:43:48 13° 63° (ENE) 21:46:05 145.822/145.860
SO-50 28 Apr 21:50:22 21:55:20 74° 239° (WSW) 22:00:13 436.795
CUBESAT XI-V 28 Apr 21:51:12 21:55:07 27° 291° (WNW) 21:58:58 437.345
SEEDS 28 Apr 21:52:03 21:55:43 29° 71° (ENE) 21:59:27 437.485
Oscar 11 28 Apr 21:59:50 22:01:32 12° 65° (ENE) 22:03:26 145.826/435.025
AAUSAT CUBESAT 2 28 Apr 22:01:45 22:05:13 26° 70° (ENE) 22:08:46 437.432
CANX-2 28 Apr 22:05:14 22:09:26 54° 74° (ENE) 22:13:39 2200.000
AUBIESAT-1 28 Apr 22:05:17 22:08:31 23° 298° (WNW) 22:11:28 437.475
YUBILEINY 28 Apr 22:13:31 22:20:22 26° 65° (ENE) 22:27:27 435.215
CUTE 1.7 + AOD 2 28 Apr 22:13:49 22:18:04 62° 75° (ENE) 22:22:20 437.475
HO-68 28 Apr 22:14:20 22:21:31 82° 73° (ENE) 22:28:46 435.675
PHONESAT 2.4 28 Apr 22:28:21 22:31:51 50° 199° (SSW) 22:35:20 2401.200-2431.200
GOMX 1 28 Apr 22:34:28 22:38:37 56° 261° (W) 22:43:00 467.674
DX 1 28 Apr 22:39:20 22:40:35 11° 63° (ENE) 22:42:03 434.975-435.025
PRISM 28 Apr 22:40:55 22:42:42 12° 295° (WNW) 22:44:18 437.425
DELFI C3 28 Apr 22:51:39 22:55:15 31° 71° (ENE) 22:58:54 145.870
Cosmos 2499 28 Apr 22:53:12 22:55:41 11° 305° (NW) 22:57:26 435.465 / 435.565
CUBEBUG 2 28 Apr 22:54:10 22:58:15 39° 72° (ENE) 23:02:32 437.445
DOVE 4 28 Apr 22:55:37 22:59:46 50° 262° (W) 23:04:11 437.250
COMPASS 1 28 Apr 22:56:30 23:00:43 64° 259° (W) 23:04:56 437.405
BRITE-PL 28 Apr 23:05:15 23:08:00 16° 270° (W) 23:10:39 437.365/2234.400
VERMONT LUNAR 28 Apr 23:07:29 23:08:52 12° 214° (SSW) 23:10:10 437.305
O/OREOS (USA 219) 28 Apr 23:10:46 23:15:08 46° 107° (ESE) 23:19:32 437.305
HUMSAT D 28 Apr 23:11:41 23:14:38 19° 68° (ENE) 23:17:45 437.325/437.525
UWE-3 28 Apr 23:13:21 23:17:37 52° 74° (ENE) 23:22:03 435.000/436.395/437.385
FUNcube-1 28 Apr 23:14:30 23:18:36 41° 72° (ENE) 23:22:51 145.935
UKube-1 28 Apr 23:15:20 23:18:52 26° 69° (ENE) 23:22:28 .
STRAND 1 28 Apr 23:15:31 23:17:41 12° 299° (WNW) 23:19:33 437.568
CINEMA 3 28 Apr 23:16:09 23:20:29 61° 260° (W) 23:25:03 145.822/145.860
50 SAT 28 Apr 23:25:24 23:27:45 16° 67° (ENE) 23:30:16 437.505
SEEDS 28 Apr 23:28:03 23:31:32 23° 266° (W) 23:34:56 437.485
RS-15 28 Apr 23:29:54 23:40:39 44° 42° (NE) 23:51:57 29.354- 29.394
ESTCUBE 1 28 Apr 23:32:21 23:33:27 11° 63° (ENE) 23:34:47 437.505/2401.250
Oscar 11 28 Apr 23:32:55 23:37:15 63° 260° (W) 23:41:36 145.826/435.025
AAUSAT CUBESAT 2 28 Apr 23:37:14 23:40:48 25° 266° (W) 23:44:18 437.432
ZACube-1 28 Apr 23:40:56 23:45:18 84° 76° (ENE) 23:49:49 437.345
CANX-2 28 Apr 23:43:48 23:45:46 12° 271° (W) 23:47:32 2200.000
TIGRISAT 28 Apr 23:49:33 23:50:49 11° 87° (E) 23:52:24 435.000
CUTE 1.7 + AOD 2 28 Apr 23:53:10 23:54:29 11° 272° (W) 23:55:32 437.475
CUBEBUG 1 28 Apr 23:53:48 23:56:17 16° 66° (ENE) 23:58:57 437.445
UNISAT 6 28 Apr 23:54:34 23:56:44 13° 88° (E) 23:59:10 437.425
VELOX 1 28 Apr 23:56:17 00:00:14 34° 70° (ENE) 00:04:15 145.980
Cosmos 2491 28 Apr 23:58:45 00:07:11 58° 92° (E) 00:15:46 435.465 / 435.565
HO-68 29 Apr 00:05:30 00:10:11 17° 272° (W) 00:14:29 435.675
PHONESAT 2.4 29 Apr 00:07:44 00:09:37 13° 213° (SSW) 00:11:24 2401.200-2431.200
YUBILEINY 29 Apr 00:09:23 00:18:04 68° 267° (W) 00:26:38 435.215
DX 1 29 Apr 00:12:02 00:16:20 69° 258° (WSW) 00:20:40 434.975-435.025
AISAT 29 Apr 00:15:04 00:19:22 58° 74° (ENE) 00:23:43 437.250
DELFI C3 29 Apr 00:27:26 00:30:28 19° 267° (W) 00:33:25 145.870
QB50P2 29 Apr 00:31:09 00:33:32 15° 91° (E) 00:36:07 145.880/145.840
CUBEBUG 2 29 Apr 00:32:02 00:35:11 18° 269° (W) 00:38:17 437.445
ANTELSAT 29 Apr 00:35:06 00:39:26 36° 97° (E) 00:43:43 437.575/2403.000
Cosmos 2504 29 Apr 00:41:44 00:46:58 19° 62° (ENE) 00:52:19 435.465 / 435.565
HUMSAT D 29 Apr 00:46:13 00:50:10 36° 263° (W) 00:54:09 437.325/437.525
NANOSAT C BR1 29 Apr 00:46:15 00:49:31 21° 93° (E) 00:52:52 145.865
POPSAT HIP 1 29 Apr 00:50:48 00:54:18 24° 94° (E) 00:57:50 437.405
UKube-1 29 Apr 00:51:14 00:54:57 27° 265° (W) 00:58:36 .
O/OREOS (USA 219) 29 Apr 00:51:37 00:54:52 18° 305° (NW) 00:58:00 437.305
UWE-3 29 Apr 00:52:09 00:54:35 14° 271° (W) 00:56:49 435.000/436.395/437.385
FUNcube-1 29 Apr 00:52:13 00:55:11 17° 270° (W) 00:58:04 145.935
BUGSAT 1 29 Apr 00:58:12 01:01:14 20° 93° (E) 01:04:23 437.445
50 SAT 29 Apr 00:58:28 01:02:15 40° 262° (W) 01:06:05 437.505
SPROUT 29 Apr 01:00:47 01:04:01 22° 68° (ENE) 01:07:21 437.525
ESTCUBE 1 29 Apr 01:05:15 01:09:46 77° 258° (WSW) 01:14:17 437.505/2401.250
DUCHIFAT 1 29 Apr 01:18:29 01:22:39 48° 99° (E) 01:26:49 145.980
POLYITAN 1 29 Apr 01:21:34 01:25:49 55° 100° (E) 01:30:05 437.675
TIGRISAT 29 Apr 01:23:29 01:28:11 70° 285° (WNW) 01:32:46 435.000
CUBEBUG 1 29 Apr 01:28:09 01:32:19 47° 261° (W) 01:36:30 437.445
UNISAT 6 29 Apr 01:29:22 01:34:01 59° 286° (WNW) 01:38:33 437.425
VELOX 1 29 Apr 01:33:34 01:36:54 21° 267° (W) 01:40:10 145.980
QB50P1 29 Apr 01:38:06 01:42:25 85° 102° (ESE) 01:46:44 145.935-145.965
AIST 1 29 Apr 01:44:27 01:48:29 41° 93° (E) 01:52:31
TISAT 1 29 Apr 01:52:15 01:56:23 64° 75° (ENE) 02:00:34 437.305
AISAT 29 Apr 01:54:30 01:56:26 12° 271° (W) 01:58:06 437.250
ITUPSAT 1 29 Apr 01:58:03 02:00:11 13° 63° (ENE) 02:02:33 437.325
